OneWeb SL0210

operational
NORAD ID: 48787 Int'l Des: 2021-045 Owner: ONEWEBN Country: UK Constellation: oneweb
LEOCIRCULARPOLARONEWEB_TYPE

Über OneWeb SL0210

Beschreibung wird geladen...

Live-Position

3D-Globus wird geladen...

Nächste Überflüge

Höhenverlauf

Altitude vs Time

uPlot chart will show altitude changes over time

Zweizeiliger Elementsatz

1 48787U 21045W 26036.72500150 -.00000025 00000-0 -10140-3 0 9991
2 48787 87.8994 285.4231 0000881 49.4515 310.6692 13.15557726227034
Epoch: 5. Feb. 2026 • Age: 13 hours

Aktueller Status

Höhe 1220.4 km
Geschwindigkeit 7.24 km/s
Subsatellitenpunkt -48.01°S, 57.59°E
Startdatum 28. Mai 2021
Alter 4.6 years
Typ internet

Technische Details

Klassifizierung Payload
Masse 148.00 kg
Trockenmasse 140.00 kg
Gesamtmasse 148.00 kg
Länge 1.30 m
Durchmesser 1.00 m
Spannweite 5.00 m
Form Trapezoid+2 pan
Hersteller ONEWUS
Bus-Typ ARROW
Phasenstatus In Orbit
Besitzer/Staat ONEWEBN/UK

Große Konstellationen

Loading constellations...